Wind_Speed
37 37 32 30 35 35 35 35 33 34 36 34 26 23 21 18 16 13 13 12 12 14 16 20 24 27 30 31 33 36 36 37 34 30 29 24 32 34 33 34 32 32 33 35 36 35 37 38 39
32 36 37 36 35 37 36 32 26 37 34 32 27 23 18 14 11 11 9 9 11 11 13 20 21 26 26 28 31 34 37 33 29 29 28 29 25 23 32 32 33 35 37 38 38 39 39 41 42
36 37 36 35 36 35 32 32 30 34 30 27 25 20 17 12 8 7 8 8 8 10 12 17 17 22 22 24 29 33 34 32 31 20 22 32 32 30 27 33 38 39 41 41 42 43 43 43 45
32 29 31 33 36 31 30 30 30 35 26 26 24 18 14 10 7 4 5 5 6 8 11 14 16 19 21 24 28 29 31 31 30 35 30 27 29 30 29 32 34 42 46 48 47 46 45 48 48
28 28 27 31 32 27 32 29 28 31 25 24 26 19 13 9 6 5 4 5 6 6 10 13 17 19 21 25 28 30 30 29 33 31 32 31 31 32 32 33 35 39 42 45 49 50 51 48 50
35 32 27 27 23 31 29 29 32 31 30 25 28 19 16 9 6 4 2 4 5 6 9 13 16 19 21 26 27 26 29 29 29 32 33 34 33 35 37 37 40 44 45 45 47 47 46 48 49
33 32 31 29 33 30 29 33 39 34 29 30 25 24 19 13 7 6 4 1 3 6 8 12 16 18 23 25 26 30 31 30 31 29 33 36 35 36 40 43 44 45 44 45 44 44 44 47 47
40 34 33 32 40 41 34 32 38 37 33 27 21 24 22 18 13 9 6 5 4 4 6 9 13 16 21 25 25 28 28 29 32 34 34 34 38 41 43 42 43 42 43 43 43 44 45 45 46
43 39 34 39 30 24 25 31 33 36 34 32 27 21 23 27 18 13 9 8 7 6 6 7 9 13 15 19 23 24 27 29 30 33 36 37 38 40 41 40 38 40 41 42 43 43 42 41 40
41 36 34 34 24 26 25 32 25 26 33 30 36 26 23 24 25 19 14 11 9 9 9 10 9 11 12 15 19 21 23 25 28 32 35 34 34 34 36 37 37 37 38 39 39 39 39 38 39
42 36 36 31 26 27 31 34 33 36 39 36 36 40 28 25 24 23 19 16 14 12 11 13 13 13 14 17 19 21 23 25 25 27 29 31 32 33 34 34 35 36 37 38 38 38 39 40 40
48 40 43 41 34 33 31 30 36 40 39 40 41 37 35 34 26 19 25 21 18 15 15 14 14 15 16 18 20 23 25 26 27 29 31 33 33 34 35 35 36 36 38 38 39 40 40 41 41
48 45 40 43 37 30 37 41 37 35 37 36 34 40 37 36 35 24 22 24 21 19 17 16 18 19 19 20 21 23 25 28 29 31 32 34 36 36 38 39 39 39 40 41 42 42 42 43 44
50 51 47 44 38 35 35 39 37 36 35 34 34 33 38 37 35 36 28 26 26 21 19 17 17 19 20 21 23 24 26 28 30 30 32 34 36 38 39 40 40 40 40 42 43 44 43 44 44
54 52 53 50 45 38 31 33 38 44 34 32 35 35 38 39 39 37 37 35 32 25 20 17 17 18 19 21 23 24 25 27 30 30 30 32 33 35 37 38 40 41 41 41 43 44 44 44 46
55 54 50 46 38 45 44 44 43 39 34 37 37 37 39 38 37 38 37 38 40 33 28 23 26 23 22 22 24 26 26 27 29 30 31 32 33 35 36 37 39 40 41 42 42 44 46 46 44
54 58 57 57 53 51 48 45 38 33 33 36 39 43 43 39 36 40 39 41 40 39 34 32 34 32 27 27 28 29 30 31 33 35 36 37 37 37 39 39 40 41 42 42 43 44 45 46 47
69 66 65 64 57 54 52 45 34 40 33 40 42 43 46 45 43 40 40 42 43 42 39 34 35 34 34 33 30 32 35 36 37 37 38 40 40 40 40 41 40 40 42 41 43 45 46 47 49
63 63 64 63 57 54 52 52 45 45 41 40 45 49 50 49 47 45 44 44 45 44 44 40 40 38 37 35 35 36 37 39 39 39 39 40 40 41 40 41 40 41 41 42 44 46 46 47 48
72 63 67 66 65 62 54 55 47 48 48 48 53 54 55 56 54 51 47 47 48 48 47 45 46 44 42 41 39 39 40 42 43 42 42 42 41 43 43 43 44 43 43 45 46 49 51 50 50
75 70 68 67 64 56 54 53 57 53 53 58 59 62 63 61 57 56 50 49 49 51 51 50 52 50 49 46 44 43 43 43 44 46 47 47 46 46 47 47 49 50 50 50 51 52 53 53 54
77 78 73 70 62 56 58 53 61 65 64 64 66 64 64 59 60 55 52 52 53 53 55 55 55 54 54 52 51 48 47 47 46 45 48 50 50 51 51 52 54 55 56 57 58 59 58 58 56
81 80 76 78 75 67 64 58 69 71 72 69 69 68 69 69 66 60 55 56 59 59 58 58 59 58 57 57 55 55 53 52 53 52 51 53 54 55 58 59 58 59 61 60 61 63 64 64 65
83 82 83 83 71 68 73 74 67 75 77 73 73 75 73 68 67 63 60 60 62 62 62 63 63 62 61 60 60 60 59 58 59 60 59 59 60 62 65 66 67 67 68 69 67 68 70 71 71
94 92 88 84 80 74 74 75 70 74 77 82 81 78 78 72 69 65 66 67 67 66 66 66 68 67 67 66 65 64 64 64 64 65 65 66 67 69 71 71 72 73 75 75 74 74 75 77 77
95 93 91 88 84 81 81 76 77 76 76 81 80 80 76 76 72 71 71 71 70 70 69 71 72 71 71 71 70 70 69 69 71 72 71 73 76 77 78 78 77 81 83 80 80 79 80 84 86
98 94 95 93 93 91 83 80 80 81 83 83 78 80 80 79 76 75 75 75 75 74 73 74 75 75 76 76 75 75 75 75 76 78 78 82 83 86 85 88 87 85 85 86 87 86 88 89 90
97 95 97 97 94 88 83 82 85 85 80 77 77 79 82 81 81 81 80 81 81 79 78 79 79 81 80 81 82 81 80 81 81 83 85 88 89 90 91 91 93 93 89 90 92 93 92 91 93
95 94 92 93 91 86 84 83 84 82 82 82 85 83 82 82 84 84 84 84 86 85 85 84 84 84 84 84 85 86 87 87 87 89 90 91 93 94 95 95 96 97 100 100 99 97 96 96 99
97 96 97 97 93 91 90 90 89 87 86 85 83 82 82 84 85 85 85 85 85 84 84 83 84 85 86 87 88 89 90 90 91 92 94 95 97 99 101 102 102 102 102 104 106 103 102 97 100
Wind_Direction
250 247 252 261 274 281 290 305 308 331 325 325 320 310 297 282 272 261 256 253 250 248 245 239 233 233 228 229 227 230 232 235 240 248 250 247 249 252 256 256 263 272 272 271 272 271 267 268 267
254 256 254 269 277 280 288 304 309 328 333 328 321 315 300 280 263 254 248 242 241 244 241 240 236 239 235 230 231 228 235 243 247 250 250 255 256 268 264 259 258 262 269 270 275 276 270 272 269
252 254 259 267 275 282 288 297 303 326 337 340 332 322 304 281 256 251 240 232 232 238 237 238 235 237 234 232 229 226 235 246 245 254 260 254 256 264 268 266 264 267 267 269 272 274 274 272 273
250 254 261 264 269 280 288 287 300 318 343 358 347 329 313 287 262 234 220 226 233 239 235 238 234 232 234 233 229 232 239 243 248 248 260 268 258 257 266 267 268 266 267 269 271 271 271 275 274
250 256 269 266 269 282 286 291 294 315 330 359 356 338 321 316 283 242 200 209 230 238 242 247 242 236 237 235 234 235 238 243 245 248 255 261 254 259 260 260 262 267 268 268 269 271 273 273 275
254 257 266 262 268 287 280 282 286 308 332 339 354 347 335 340 337 296 224 185 212 234 249 249 248 244 235 237 240 242 243 243 247 247 253 263 262 262 264 268 268 271 272 273 274 275 277 279 282
254 261 256 269 276 270 276 284 295 303 324 327 1 356 353 342 351 3 328 300 204 213 232 240 245 252 245 247 249 244 248 251 250 255 254 257 262 267 270 272 273 278 280 280 281 283 284 284 284
255 253 254 274 276 264 275 286 289 301 316 330 355 10 4 357 351 359 3 342 312 261 239 237 241 247 253 249 251 253 257 258 259 260 264 267 267 270 272 276 279 281 283 285 286 285 287 286 287
253 259 256 270 261 274 284 290 300 304 309 328 327 350 8 7 355 352 356 355 341 315 290 269 253 251 254 254 253 261 267 268 268 269 273 273 275 275 277 282 283 284 285 287 288 288 288 288 288
253 245 261 252 272 282 290 287 298 312 318 322 332 335 348 1 6 356 351 352 342 326 305 294 284 271 264 267 263 262 263 265 268 268 271 273 276 279 282 284 286 286 289 289 288 289 289 290 292
250 237 249 257 265 280 283 289 289 296 314 309 323 323 333 336 358 9 354 344 343 333 319 308 298 288 283 275 273 271 272 274 275 275 276 278 280 281 282 283 285 287 287 287 289 291 294 293 293
240 235 254 265 265 275 274 283 294 299 306 308 312 323 328 332 338 351 10 355 336 331 328 319 306 300 292 286 283 283 283 283 283 282 281 283 283 283 286 287 288 288 288 289 290 291 290 290 290
235 244 255 256 267 262 271 278 290 303 306 308 313 318 319 327 328 334 346 354 350 334 319 316 317 311 307 302 297 292 291 289 288 287 288 289 290 291 291 291 290 290 291 290 290 290 291 292 292
246 244 249 260 267 263 276 278 281 291 300 298 305 315 319 322 320 319 331 344 347 344 332 319 310 305 305 304 300 298 295 294 292 290 290 290 291 291 290 290 290 290 290 291 292 293 293 292 294
245 245 248 254 263 266 271 270 282 288 288 290 299 305 310 313 315 315 319 323 337 336 338 329 322 312 306 302 302 301 299 295 293 292 291 291 288 287 289 291 293 294 295 295 294 294 295 295 297
245 243 246 252 257 268 270 274 281 281 277 287 296 302 305 309 309 306 312 316 327 329 335 333 339 327 313 308 302 298 297 295 294 295 294 292 291 293 293 293 293 293 294 294 296 297 297 297 295
238 238 247 251 263 266 272 273 274 264 276 288 294 301 303 306 307 301 305 307 313 322 324 325 329 332 328 326 316 311 307 305 304 303 302 299 298 298 297 297 298 299 299 299 299 299 298 298 297
247 245 249 255 261 267 266 264 260 273 274 284 293 299 302 305 306 295 298 302 301 310 315 313 317 317 320 326 323 319 314 310 309 305 304 303 302 302 302 302 301 301 302 301 300 301 299 299 299
247 247 251 254 257 269 265 266 265 269 269 280 288 293 296 299 303 296 290 288 289 303 310 311 305 308 311 314 321 315 317 306 306 303 302 299 300 299 299 299 297 297 297 300 299 299 299 297 298
250 246 252 252 262 260 262 260 263 262 266 279 282 288 295 295 300 296 279 283 291 293 303 305 299 301 306 308 308 313 314 311 306 305 304 301 298 297 297 297 294 292 294 296 298 297 297 297 297
250 250 257 258 255 257 253 257 265 266 266 275 281 287 290 292 294 295 280 281 287 286 293 296 296 296 298 300 302 306 307 307 308 305 300 300 299 298 297 296 297 297 295 295 296 295 298 294 295
250 250 252 251 248 249 250 258 266 269 271 275 282 284 287 287 289 292 277 276 285 285 284 287 292 291 291 292 295 298 299 301 304 304 300 297 297 296 295 295 297 297 297 297 299 299 299 296 296
247 250 256 256 250 252 253 254 267 270 273 274 278 281 285 285 287 283 276 274 279 282 281 280 281 282 285 287 289 291 293 294 294 294 295 295 294 293 293 293 296 296 295 297 298 299 301 299 298
248 255 258 257 246 245 258 267 262 269 273 273 274 281 282 282 283 280 273 272 273 276 278 278 279 280 281 281 282 285 287 289 288 288 290 291 292 293 293 297 298 298 300 302 299 299 298 298 299
252 254 255 248 253 259 260 263 260 263 270 274 276 278 278 278 280 274 271 271 275 276 277 278 277 278 278 278 279 281 282 283 284 286 286 287 286 288 291 292 293 295 297 298 298 297 296 295 297
247 251 249 252 256 258 260 259 262 261 263 270 275 276 274 275 274 271 270 271 274 274 275 276 276 276 277 277 277 278 279 281 281 284 285 286 286 286 287 289 289 292 295 293 293 293 293 295 295
247 247 249 251 256 261 259 259 261 263 265 264 266 268 271 274 273 271 270 271 274 274 274 274 274 274 274 274 275 276 277 278 279 281 282 283 284 286 286 289 289 291 290 290 291 293 294 296 295
247 248 252 257 257 254 257 260 260 263 263 265 263 265 266 268 270 272 273 273 272 273 273 272 272 272 272 274 274 275 276 277 277 278 279 282 284 285 286 287 289 289 289 290 291 291 292 292 291
247 247 250 254 256 258 257 258 259 261 262 261 262 262 262 264 266 266 267 269 271 274 274 275 275 275 276 277 277 278 279 279 280 281 282 283 285 286 287 288 289 290 292 293 293 291 291 291 293
248 249 250 253 254 254 255 256 256 258 259 259 258 259 259 259 260 262 265 268 269 271 272 274 275 276 277 278 278 278 278 279 281 282 283 285 286 287 288 290 290 290 290 290 292 292 292 293 291
Height
10864 10865 10866 10866 10865 10866 10864 10862 10859 10853 10847 10842 10836 10833 10828 10825 10823 10822 10821 10821 10822 10823 10824 10825 10827 10827 10830 10833 10835 10835 10838 10839 10843 10845 10847 10850 10852 10854 10855 10856 10856 10855 10855 10855 10855 10855 10856 10854 10853
10860 10862 10864 10863 10864 10864 10862 10861 10856 10852 10846 10839 10834 10830 10826 10823 10821 10820 10819 10819 10820 10821 10822 10822 10825 10825 10827 10830 10832 10835 10835 10838 10840 10842 10845 10847 10849 10851 10851 10851 10851 10850 10850 10850 10850 10849 10849 10848 10846
10857 10859 10861 10861 10862 10862 10860 10858 10856 10851 10847 10839 10833 10829 10825 10822 10820 10818 10817 10817 10818 10819 10819 10821 10823 10823 10825 10828 10830 10832 10835 10836 10838 10840 10842 10844 10846 10847 10847 10847 10846 10845 10844 10844 10843 10843 10843 10841 10839
10852 10857 10858 10858 10860 10859 10857 10855 10855 10851 10847 10840 10834 10830 10825 10822 10819 10817 10816 10816 10816 10817 10818 10819 10821 10822 10824 10826 10829 10830 10832 10834 10835 10838 10840 10841 10842 10843 10844 10843 10841 10839 10838 10838 10836 10835 10835 10834 10833
10850 10853 10854 10855 10857 10856 10855 10853 10853 10850 10846 10839 10834 10829 10825 10821 10818 10817 10815 10814 10815 10815 10816 10818 10819 10821 10823 10825 10827 10828 10830 10831 10834 10835 10836 10837 10838 10838 10838 10837 10836 10834 10832 10831 10830 10831 10830 10829 10827
10846 10849 10851 10851 10853 10852 10851 10851 10849 10849 10845 10840 10834 10829 10825 10821 10819 10817 10815 10814 10814 10815 10816 10817 10818 10819 10822 10824 10825 10826 10828 10829 10831 10832 10832 10833 10833 10833 10833 10832 10831 10829 10827 10826 10824 10825 10824 10823 10821
10843 10844 10847 10848 10849 10849 10849 10849 10846 10846 10844 10840 10835 10830 10826 10821 10818 10816 10815 10815 10814 10815 10815 10817 10818 10819 10821 10823 10823 10824 10825 10827 10828 10828 10829 10828 10828 10828 10827 10826 10825 10824 10821 10820 10819 10818 10818 10816 10815
10837 10840 10842 10845 10845 10845 10845 10845 10845 10843 10842 10840 10835 10831 10826 10823 10819 10815 10814 10814 10814 10815 10816 10816 10816 10817 10818 10819 10820 10821 10822 10823 10824 10823 10824 10825 10824 10823 10822 10821 10820 10818 10816 10814 10811 10811 10810 10808 10807
10833 10837 10839 10841 10842 10842 10842 10841 10842 10840 10838 10837 10834 10829 10826 10822 10820 10817 10814 10812 10813 10813 10814 10815 10815 10815 10815 10816 10817 10817 10818 10819 10819 10819 10819 10819 10818 10817 10816 10815 10814 10812 10810 10808 10806 10804 10803 10801 10799
10828 10833 10836 10837 10837 10836 10837 10838 10839 10838 10836 10834 10832 10830 10826 10823 10820 10817 10816 10814 10812 10811 10812 10812 10812 10813 10812 10813 10813 10815 10816 10816 10816 10815 10815 10814 10813 10810 10810 10809 10808 10807 10804 10803 10801 10799 10796 10795 10792
10822 10828 10830 10831 10831 10831 10833 10834 10835 10835 10833 10832 10830 10828 10826 10824 10823 10819 10815 10814 10813 10813 10811 10810 10810 10809 10810 10810 10810 10810 10810 10810 10811 10810 10809 10808 10807 10805 10805 10804 10802 10801 10798 10796 10794 10792 10789 10786 10784
10815 10820 10824 10824 10827 10827 10827 10829 10830 10830 10830 10828 10828 10825 10824 10822 10823 10820 10818 10815 10813 10811 10811 10809 10808 10808 10807 10806 10806 10805 10805 10805 10805 10804 10803 10802 10801 10800 10798 10797 10796 10795 10792 10789 10787 10784 10782 10779 10777
10808 10813 10818 10820 10822 10822 10823 10825 10825 10825 10825 10825 10824 10822 10821 10821 10819 10819 10817 10816 10814 10812 10810 10808 10806 10804 10804 10803 10802 10801 10800 10799 10800 10799 10798 10796 10793 10792 10790 10789 10788 10787 10784 10782 10779 10778 10776 10772 10769
10803 10807 10812 10814 10816 10817 10818 10820 10819 10821 10821 10820 10821 10819 10819 10818 10817 10815 10815 10814 10813 10811 10809 10807 10805 10802 10802 10801 10799 10798 10797 10795 10794 10793 10792 10791 10787 10785 10784 10782 10780 10778 10776 10774 10771 10768 10767 10764 10761
10795 10799 10804 10808 10808 10812 10812 10816 10815 10815 10817 10814 10815 10816 10816 10816 10813 10812 10811 10809 10809 10809 10807 10806 10804 10801 10799 10797 10795 10794 10793 10791 10788 10787 10787 10785 10783 10780 10777 10775 10772 10770 10768 10766 10763 10760 10757 10756 10753
10786 10792 10795 10798 10803 10805 10807 10808 10812 10807 10810 10810 10809 10810 10813 10810 10811 10809 10808 10805 10804 10804 10803 10801 10800 10798 10796 10795 10792 10790 10788 10786 10783 10781 10779 10779 10777 10774 10772 10769 10767 10765 10763 10760 10757 10753 10749 10747 10747
10777 10780 10784 10790 10794 10797 10800 10801 10804 10802 10801 10800 10801 10802 10805 10805 10807 10803 10804 10802 10801 10800 10798 10796 10794 10791 10789 10788 10786 10783 10782 10779 10777 10773 10771 10769 10767 10766 10764 10761 10759 10757 10755 10753 10750 10746 10743 10739 10736
10765 10773 10778 10780 10785 10787 10791 10792 10796 10796 10794 10793 10792 10794 10796 10797 10802 10798 10799 10796 10794 10795 10795 10794 10791 10789 10786 10784 10780 10777 10774 10772 10771 10768 10766 10763 10760 10758 10756 10754 10752 10749 10746 10745 10742 10739 10735 10732 10728
10760 10764 10767 10770 10774 10779 10781 10782 10785 10789 10785 10786 10786 10786 10788 10790 10794 10793 10792 10789 10787 10788 10788 10788 10786 10785 10782 10779 10776 10773 10770 10766 10764 10762 10760 10757 10755 10753 10751 10747 10746 10744 10740 10737 10734 10731 10728 10724 10720
10747 10752 10754 10760 10766 10771 10774 10770 10774 10778 10774 10775 10776 10779 10781 10782 10783 10785 10784 10782 10780 10780 10780 10780 10777 10776 10776 10773 10771 10767 10763 10759 10758 10756 10754 10750 10749 10746 10743 10740 10738 10736 10734 10729 10726 10722 10718 10715 10710
10735 10739 10742 10750 10756 10761 10764 10762 10763 10764 10762 10764 10764 10770 10771 10773 10774 10775 10775 10775 10773 10771 10771 10770 10767 10766 10766 10765 10763 10761 10757 10752 10750 10748 10745 10742 10741 10739 10735 10733 10730 10727 10724 10721 10716 10712 10709 10706 10700
10721 10724 10729 10738 10745 10750 10752 10757 10749 10753 10750 10753 10756 10756 10759 10763 10763 10766 10767 10766 10764 10763 10762 10760 10758 10756 10755 10755 10753 10752 10750 10745 10742 10739 10736 10733 10732 10729 10726 10724 10722 10718 10714 10711 10707 10703 10699 10696 10690
10708 10712 10720 10727 10734 10740 10741 10747 10736 10736 10737 10743 10743 10745 10747 10751 10753 10753 10754 10754 10752 10750 10750 10750 10748 10746 10744 10742 10741 10740 10739 10736 10732 10729 10726 10722 10720 10718 10715 10713 10712 10708 10703 10701 10698 10693 10688 10683 10680
10695 10701 10706 10712 10717 10725 10728 10733 10732 10718 10722 10728 10732 10733 10736 10738 10740 10740 10740 10740 10741 10740 10737 10736 10734 10734 10734 10731 10729 10725 10725 10723 10719 10715 10714 10711 10706 10704 10700 10699 10698 10695 10690 10687 10685 10681 10676 10670 10665
10681 10683 10688 10694 10702 10715 10716 10717 10722 10712 10709 10706 10716 10722 10723 10723 10725 10726 10725 10725 10726 10727 10726 10725 10723 10721 10719 10718 10716 10714 10711 10709 10705 10701 10698 10695 10691 10686 10684 10683 10680 10677 10675 10671 10668 10665 10659 10652 10649
10660 10665 10674 10683 10689 10695 10702 10704 10702 10703 10704 10700 10698 10700 10705 10708 10709 10709 10711 10712 10713 10713 10712 10709 10708 10707 10705 10704 10702 10700 10698 10695 10691 10686 10682 10678 10673 10669 10666 10664 10665 10661 10658 10653 10650 10647 10641 10635 10630
10648 10652 10651 10660 10672 10680 10687 10690 10686 10682 10690 10694 10688 10686 10684 10687 10691 10693 10696 10696 10696 10696 10696 10696 10693 10693 10691 10689 10687 10684 10681 10679 10676 10671 10666 10660 10654 10650 10648 10645 10642 10640 10638 10634 10630 10628 10622 10617 10610
10630 10633 10637 10646 10654 10662 10671 10672 10667 10666 10672 10677 10680 10674 10672 10675 10676 10674 10674 10673 10673 10676 10677 10676 10676 10674 10673 10673 10670 10668 10665 10663 10659 10654 10648 10642 10637 10632 10628 10624 10620 10616 10614 10610 10608 10606 10601 10598 10590
10609 10618 10620 10624 10635 10646 10653 10652 10649 10654 10654 10655 10657 10659 10661 10661 10659 10658 10657 10657 10655 10655 10655 10654 10654 10653 10654 10653 10651 10648 10646 10643 10638 10633 10627 10623 10620 10613 10607 10602 10598 10593 10587 10583 10582 10579 10576 10573 10566
10592 10602 10604 10606 10620 10623 10631 10637 10638 10639 10636 10633 10638 10643 10645 10644 10644 10643 10641 10640 10639 10639 10638 10637 10635 10633 10632 10630 10628 10625 10622 10620 10617 10613 10607 10601 10596 10589 10584 10580 10575 10569 10564 10559 10555 10552 10550 10546 10542